Home   Weather   Pittsburgh   Past weeks

Flag for USA Past Weather in Pittsburgh, Pennsylvania, USA — Yesterday and Last 2 Weeks

Now
65 °F

Sunny.


Feels Like: 65 °F
Forecast: 50 / 74 °F
Wind: 9 mph from East

Location: Allegheny County Airport

Current Time: Sep 28, 2016 at 11:24:35 AM

Latest Report: Sep 28, 2016 at 10:53 AM


Visibility: 10 mi

Pressure: 29.96 "Hg

Humidity: 54%

Dew Point: 48 °F

Location of PittsburghLocation

Past Weather in Pittsburgh — Graph

°F

Pittsburgh Temperature Yesterday

Maximum temperature yesterday: 71 °F (at 2:53 PM)
Minimum temperature yesterday: 52 °F (at 6:53 AM)
Average temperature yesterday: 61 °F

High & Low Weather Summary for the Past Weeks

 TemperatureHumidityPressure
High87 °F (Sep 23, 1:53 PM)93% (Sep 19, 5:00 AM)30.26 "Hg (Sep 19, 5:00 AM)
Low50 °F (Sep 25, 6:53 AM)25% (Sep 27, 3:53 PM)29.86 "Hg (Sep 27, 5:53 PM)
Average69 °F66%30.09 "Hg
* Reported Sep 13 9:53 AM — Sep 28 9:53 AM, Pittsburgh, Weather by CustomWeather, © 2016

Note: Actual official high and low records may vary slightly from our data, if they occured in-between our weather recording intervals... More about our weather records

Advertising

Pittsburgh Weather History for the Previous 24 Hours

Scroll right to see more
 ConditionsComfort  
Time TempWeatherWind HumidityBarometerVisibility
9:53 AM
Wed, Sep 28
60 °FSunny.7 mph58%29.96 "Hg10 mi
8:53 AM56 °FSunny.6 mph65%29.95 "Hg10 mi
7:53 AM51 °FSunny.5 mph77%29.95 "Hg10 mi
6:53 AM50 °FClear.7 mph83%29.95 "Hg5 mi
5:53 AM50 °FClear.6 mph83%29.94 "Hg8 mi
4:53 AM50 °FClear.7 mph80%29.94 "Hg10 mi
3:53 AM53 °FClear.8 mph69%29.93 "Hg10 mi
2:53 AM51 °FClear.8 mph86%29.94 "Hg10 mi
1:53 AM54 °FClear.8 mph77%29.92 "Hg7 mi
12:53 AM53 °FClear.8 mph80%29.92 "Hg7 mi
11:53 PM
Tue, Sep 27
54 °FClear.8 mph69%29.93 "Hg10 mi
10:53 PM58 °FClear.7 mph54%29.93 "Hg10 mi
9:53 PM61 °FClear.7 mph46%29.92 "Hg10 mi
8:53 PM63 °FClear.7 mph40%29.91 "Hg10 mi
7:53 PM65 °FClear.6 mph36%29.90 "Hg10 mi
6:53 PM68 °FSunny.5 mph31%29.88 "Hg10 mi
5:53 PM70 °FSunny.14 mph28%29.86 "Hg10 mi
4:53 PM71 °FSunny.15 mph26%29.87 "Hg10 mi
3:53 PM71 °FSunny.15 mph25%29.88 "Hg10 mi
2:53 PM71 °FSunny.15 mph28%29.88 "Hg10 mi
1:53 PM70 °FSunny.18 mph29%29.91 "Hg10 mi
12:53 PM68 °FSunny.10 mph32%29.93 "Hg10 mi
11:53 AM66 °FSunny.12 mph43%29.96 "Hg10 mi
Weather by CustomWeather, © 2016

See weather overviewHow to use our weather pages